Location: Unspecified
(41.1637°N, 24.2901°E)
Time: 12:49:15
(UTC+01:00)

ISS - Pass Details

Date: 02 December 2021
Orbit: 417 x 423 km, 51.6° (Epoch: 29 November)

Event Time Altitude Azimuth Distance (km) Brightness Sun altitude
Rises 16:21:46 0° 305° (NW) 2,379 0.5 -5.4°
Reaches altitude 10° 16:24:35 10° 330° (NNW) 1,513 -0.8 -5.9°
Maximum altitude 16:26:35 15° 7° (N) 1,258 -1.6 -6.2°
Drops below altitude 10° 16:28:36 10° 43° (NE) 1,512 -1.5 -6.6°
Enters shadow 16:29:13 - 51° (NE) 1,671 -1.3 -6.7°
